sat.trackr.live / text

‹ back to catalog

STARLINK-30875

NORAD 58224 · 2023-170U

PAYLOAD ACTIVE UNKNOWN

§ Identity

Operator
Country
US
Launch date
2023-11-03
Launch site
AFETR
Launch vehicle
Mass (kg)
RCS (m²)

Purposes: comms

External: N2YO · Heavens-Above · Gunter

§ Orbital elements

Epoch: 2026-09-20T03:52:12.481248Z

Period
94.27 min
Inclination
43.0020°
Eccentricity
0.0001419
Mean motion
15.27579664 rev/d
Perigee alt
482.1 km
Apogee alt
484.0 km
Semi-major
6,861.2 km
B*
1.1841e-5
RAAN
175.7441°
Arg perigee
267.2421°
Mean anomaly
92.8269°
Rev number
16,004

§ Raw data

STARLINK-308751 58224U 23170U   26263.16125557  .00000064  00000+0  11841-4 0  99932 58224  43.0020 175.7441 0001419 267.2421  92.8269 15.27579664160049

JSON: /api/v1/satellites/58224 · /tle

For live sub-satellite position, see the globe view (requires WebGL).

§ Visibility from observer

Set your observer location to see the next 7 days of passes ≥ 10°. The values pass through the URL so the page stays shareable.

No JS? Fill the form by hand. The geolocation button needs JavaScript.